Location: Unspecified
(42.3650°N, 71.1030°W)
Time: 17:20:49
(UTC+00:00)

S-56A Canister/Altair - Pass Details

Date: 28 June 2024
Orbit: 638 x 2487 km, 38.9° (Epoch: 20 July)

Event Time Altitude Azimuth Distance (km) Brightness Sun altitude
Rises 04:33:08 0° 280° (W) 4,636 11.7 -24.3°
Reaches altitude 10° 04:35:54 10° 276° (W) 3,877 11.2 -24.3°
Maximum altitude 04:46:15 56° 202° (SSW) 2,409 9.6 -24.4°
Drops below altitude 10° 05:00:09 10° 131° (SE) 5,093 11.4 -24.3°
Sets 05:04:23 0° 127° (SE) 6,150 11.8 -24.3°
